| time (UTC) | temp F | wind direction | speed knots | gust knots | rain 1hr in | rain 24hr in | rain mn in | humidity % | barometer mb |
| 20260505041600 | 50 | 296 | 0.0 | 1.7 | 0.00 | 0.00 | 0.00 | 100 | |
| 20260505040100 | 49 | 227 | 0.0 | 0.0 | 0.00 | 0.00 | 0.00 | 100 | |
| 20260505034601 | 49 | 227 | 0.0 | 0.0 | 0.00 | 0.00 | 0.00 | 100 | |
| 20260505033101 | 48 | 227 | 0.0 | 0.0 | 0.00 | 0.00 | 0.00 | 100 | |
| 20260505031601 | 47 | 227 | 0.0 | 0.0 | 0.00 | 0.00 | 0.00 | 100 | |
| 20260505030101 | 47 | 227 | 0.0 | 0.0 | 0.00 | 0.00 | 0.00 | 100 | |
| 20260505024601 | 47 | 227 | 0.0 | 0.0 | 0.00 | 0.00 | 0.00 | 100 | |
| 20260505023101 | 47 | 250 | 1.7 | 1.7 | 0.00 | 0.00 | 0.00 | 100 | |
| 20260505021601 | 48 | 253 | 0.0 | 0.0 | 0.00 | 0.00 | 0.00 | 100 | |
| 20260505020101 | 48 | 324 | 0.0 | 0.0 | 0.00 | 0.00 | 0.00 | 100 | |
| 20260505014601 | 47 | 0 | 1.7 | 1.7 | 0.00 | 0.00 | 0.00 | 100 | |
| 20260505013101 | 49 | 243 | 0.0 | 0.0 | 0.00 | 0.00 | 0.00 | 100 | |
| 20260505011601 | 48 | 243 | 0.0 | 0.0 | 0.00 | 0.00 | 0.00 | 100 | |
| 20260505004601 | 48 | 243 | 0.0 | 0.0 | 0.00 | 0.00 | 0.00 | 100 | |
| 20260505003101 | 47 | 243 | 0.0 | 0.0 | 0.00 | 0.00 | 0.00 | 100 | |
| 20260505001601 | 47 | 243 | 0.0 | 0.0 | 0.00 | 0.00 | 0.00 | 100 | |
| 20260504234601 | 47 | 243 | 0.0 | 0.0 | 0.00 | 0.00 | 0.00 | 100 | |
| 20260504233101 | 47 | 243 | 0.0 | 0.0 | 0.00 | 0.00 | 0.00 | 100 | |
| 20260504231601 | 48 | 243 | 0.0 | 0.0 | 0.00 | 0.00 | 0.00 | 100 | |
| 20260504224602 | 48 | 243 | 0.0 | 0.0 | 0.00 | 0.00 | 0.00 | 100 | |
| 20260504223102 | 49 | 243 | 0.0 | 0.0 | 0.00 | 0.00 | 0.00 | 100 | |
| 20260504221602 | 49 | 243 | 0.0 | 0.0 | 0.00 | 0.00 | 0.00 | 100 | |
| 20260504214602 | 50 | 243 | 0.0 | 0.0 | 0.00 | 0.00 | 0.00 | 100 | |
| 20260504213102 | 50 | 243 | 0.0 | 0.0 | 0.00 | 0.00 | 0.00 | 100 | |
| 20260504211602 | 50 | 243 | 0.0 | 0.0 | 0.00 | 0.00 | 0.00 | 100 | |
| 20260504204602 | 51 | 243 | 0.0 | 0.0 | 0.00 | 0.00 | 0.00 | 100 | |
| 20260504203102 | 52 | 243 | 0.0 | 0.0 | 0.00 | 0.00 | 0.00 | 100 | |
| 20260504201602 | 53 | 327 | 0.0 | 0.0 | 0.00 | 0.00 | 0.00 | 100 | |
| 20260504194602 | 55 | 327 | 0.0 | 0.0 | 0.00 | 0.00 | 0.00 | 100 | |
| 20260504193102 | 56 | 327 | 0.0 | 0.0 | 0.00 | 0.00 | 0.00 | 100 | |
| 20260504191602 | 56 | 327 | 0.0 | 0.0 | 0.00 | 0.00 | 0.00 | 100 | |
| 20260504184602 | 60 | 327 | 0.0 | 0.0 | 0.00 | 0.00 | 0.00 | 100 | |
| 20260504183102 | 61 | 327 | 0.0 | 0.0 | 0.00 | 0.00 | 0.00 | 100 | |
| 20260504181602 | 61 | 33 | 0.0 | 0.0 | 0.00 | 0.00 | 0.00 | 100 | |
| 20260504174603 | 64 | 9 | 1.7 | 5.2 | 0.00 | 0.00 | 0.00 | 100 | |
| 20260504173103 | 69 | 307 | 0.0 | 5.2 | 0.00 | 0.00 | 0.00 | 100 | |
| 20260504171603 | 73 | 326 | 0.0 | 5.2 | 0.00 | 0.00 | 0.00 | 100 | |
| 20260504150103 | 65 | 341 | 2.6 | 8.7 | 0.00 | 0.00 | 0.00 | 100 | |
| 20260504140103 | 64 | 21 | 1.7 | 11.3 | 0.00 | 0.00 | 0.00 | 100 | |
| 20260504130104 | 65 | 337 | 8.7 | 10.4 | 0.00 | 0.00 | 0.00 | 100 | |
| 20260504120104 | 63 | 331 | 5.2 | 13.9 | 0.00 | 0.00 | 0.00 | 100 | |
| 20260504110104 | 62 | 326 | 5.2 | 18.2 | 0.00 | 0.00 | 0.00 | 100 | |
| 20260504100104 | 62 | 337 | 13.9 | 18.2 | 0.00 | 0.00 | 0.00 | 100 | |
| 20260504090104 | 64 | 345 | 7.0 | 18.2 | 0.00 | 0.00 | 0.00 | 100 | |
| 20260504081605 | 66 | 282 | 16.5 | 16.5 | 0.00 | 0.00 | 0.00 | 100 | |
| 20260504080105 | 66 | 274 | 7.8 | 16.5 | 0.00 | 0.00 | 0.00 | 100 | |
| 20260504070105 | 63 | 309 | 11.3 | 20.0 | 0.00 | 0.00 | 0.00 | 100 | |
| 20260504060105 | 61 | 303 | 7.8 | 13.0 | 0.00 | 0.00 | 0.00 | 100 | |
| 20260504050105 | 60 | 310 | 3.5 | 11.3 | 0.00 | 0.00 | 0.00 | 100 |